Regional Weather Roundup
Issued by NWS Sterling, VA

Home | Current Version | Previous Version | Graphics & Text | Print | Product List | Glossary On
Versions: 1 2 3 4 5 6 7 8 9 10 11 12 13 14 15 16 17 18 19 20 21 22 23 24 25 26
000
ASUS41 KLWX 111111
RWRLWX

REGIONAL WEATHER ROUNDUP
NATIONAL WEATHER SERVICE BALTIMORE MD/WASHINGTON DC
600 AM EST MON DEC 11 2017

Note: "FAIR" indicates few or no clouds below 12,000 feet
with no significant weather and/or obstructions to visibility.
 TC=TEMPERATURE CELSIUS

 * =Non NWS site. Station does not report precipitation (e.g. rain,
    snow, etc.), thunder, or fog.

DCZ001-MDZ009-015-VAZ040>042-051-053>054-111200-
WASHINGTON METRO

CITY           SKY/WX    TMP DP  RH WIND       PRES   REMARKS
WASHINGTON NAT CLOUDY    36  28  73 SW3       30.07R
DULLES         CLOUDY    31  28  89 CALM      30.05R
ANDREWS AFB    PTCLDY    30  25  84 CALM      30.04R
FT BELVOIR     CLOUDY    31  27  86 CALM      30.06R
COLLEGE PARK*  CLOUDY    32  28  83 CALM      30.06R
LEESBURG*      CLOUDY    34  30  86 CALM      30.05R
MANASSAS*      CLOUDY    30  27  88 CALM      30.06R
GAITHERSBURG*  CLOUDY    33  25  72 CALM      30.04R

$$

MDZ006>007-011-014-111200-
BALTIMORE METRO

CITY           SKY/WX    TMP DP  RH WIND       PRES   REMARKS
BWI AIRPORT    CLOUDY    36  28  73 SW5       30.04R
MD SCIENCE CTR   N/A     38  27  64 MISG      30.05R
MARTIN STATE   CLOUDY    37  28  70 CALM      30.06R
ANNAPOLIS      CLOUDY    36  29  75 CALM      30.06R
FORT MEADE*    CLOUDY    32  30  93 CALM      30.08R

$$

MDZ012-015-019>023-111200-
MARYLAND EASTERN SHORE

CITY           SKY/WX    TMP DP  RH WIND       PRES   REMARKS
OCEAN CITY     CLOUDY    33  29  85 NW3       30.07R
SALISBURY      PTCLDY    28  27  96 CALM      30.06R
BAY BRIDGE AP* CLOUDY    37  28  70 W6        30.06R
CAMBRIDGE*     CLOUDY    32  30  93 CALM      30.06R
EASTON*        PTCLDY    36  28  75 W7        30.09R

$$

MDZ017>025-111200-
SOUTHERN MARYLAND

CITY           SKY/WX    TMP DP  RH WIND       PRES   REMARKS
PATUXENT RIVER PTCLDY    31  28  89 CALM      30.06R
ST INIGOES     CLEAR     36  27  69 W5        30.06R
LEONARDTOWN*   MOCLDY    32  28  86 CALM      30.07R

$$

MDZ003>005-111200-
NORTH CENTRAL MARYLAND

CITY           SKY/WX    TMP DP  RH WIND       PRES   REMARKS
FREDERICK*     CLOUDY    34  25  69 SW3       30.07R
HAGERSTOWN APT CLOUDY    36  23  59 W5        30.02R
WESTMINSTER*   CLOUDY    34  27  75 SW5       30.01S

$$

MDZ501>502-111200-
WESTERN MARYLAND

CITY           SKY/WX    TMP DP  RH WIND       PRES   REMARKS
OAKLAND*       CLOUDY    27  18  69 W13G20    29.89R WCI  16
CUMBERLAND*    CLOUDY    37  21  52 NW7       30.05S

$$

VAZ025>031-111200-
SHENANDOAH VALLEY

CITY           SKY/WX    TMP DP  RH WIND       PRES   REMARKS
WINCHESTER*    CLOUDY    32  23  69 SW5       30.02S
FRONT ROYAL*   CLOUDY    30  27  86 MISG      30.02R
LURAY*         CLOUDY    28  27  93 CALM      30.02R
NEW MARKET*    CLOUDY    26  22  83 CALM      30.01S
STAUNTON*      CLEAR     24  18  79 CALM      30.03R
WAYNESBORO*    CLEAR     32  19  60 SW3       30.00R

$$

WVZ021-048>050-054>055-111200-
EASTERN WEST VIRGINIA PANHANDLE

CITY           SKY/WX    TMP DP  RH WIND       PRES   REMARKS
MARTINSBURG    CLOUDY    34  20  56 S3        30.02R
PETERSBURG*    CLOUDY    36  21  53 W9        30.02R

$$

VAZ036>039-050-111200-
CENTRAL FOOTHILLS

CITY           SKY/WX    TMP DP  RH WIND       PRES   REMARKS
CHARLOTTESVILL CLEAR     29  22  75 CALM      30.03R
CULPEPER*      CLOUDY    29  25  85 CALM      30.06R
ORANGE*        CLEAR     27  23  86 CALM      30.05R
GORDONSVILLE*  CLEAR     26  24  91 SW3       30.04S
WARRENTON*     CLOUDY    30  25  83 CALM      30.05R

$$

VAZ055>057-111200-
NORTH AND CENTRAL PIEDMONT

CITY           SKY/WX    TMP DP  RH WIND       PRES   REMARKS
FREDERICKSBRG* CLEAR     33  27  78 CALM      30.06R
STAFFORD*      PTCLDY    28  28 100 CALM      30.09S

$$

NCZ024-NYZ072-PAZ021-071-VAZ022-071-111200-
OTHER REGIONAL OBSERVATIONS

CITY           SKY/WX    TMP DP  RH WIND       PRES   REMARKS
NEW YORK CITY  CLOUDY    34  23  64 VRB5G16   30.02R
PHILADELPHIA   CLOUDY    34  29  82 SW6       30.04R
PITTSBURGH     CLOUDY    33  21  61 W6        30.01R
ROANOKE        CLEAR     38  22  52 W9        30.05S
RICHMOND       PTCLDY    34  24  67 W9        30.07R WCI  27
RALEIGH        CLEAR     28  24  85 CALM      30.13R

$$

ANZ530>537-111200-
MARINE OBSERVATIONS

STATION/POSITION TIME  TEMP    WIND        PRES
                       AIR SEA DIR/SP/G
                 (UTC) (F)     (DEG/KT/KT) (MB)
THOMAS PT LIGHT  1100   37 48  280/  8/  9   N/A
BALT KEY BRIDGE  1042   37     230/  7/  9 1017.5R
COVE POINT       1042   37     270/  3/  5 1018.5R
LEWISETTA        1042   35 44  260/  3/  4 1018.0R
SOLOMONS ISLAND  1042   37 48  270/  3/  4 1017.7R
PINEY POINT      1042          300/  7/  9   N/A

$$





USA.gov is the U.S. government's official web portal to all federal, state and local government web resources and services.